F
Liste des engagé(e)s
Classement
PDF
   
         
   
 
Pos Nom Prénom Pays Temps Ecart Pl. Cat. Pl. Sexe Club
1 879 BRUCHON CLÉMENT 00:22:17 1 CA 1 M SAINT-JEAN-DE-BOURNAY
2 806 GUERIN JEAN-CÔME 00:24:49 02:32 2 CA 2 M AGNIN
3 480 DUMOULIN Benjamin 00:24:56 02:39 3 CA 3 M JSP MONTALIEU
4 410 CALANDRE Thomas 00:25:12 02:55 4 CA 4 M JSP PEAGE DE ROUSSILLON
5 149 DUFOUR Mathis 00:25:14 02:57 5 CA 5 M JSP CANTON DE VIF
6 111 LOPEZ Alexandre 00:25:21 03:04 6 CA 6 M JSP VIZILLE
7 507 PICON Félix 00:25:37 03:20 7 CA 7 M JSP VINAY
8 405 THIBAULT Clément 00:25:53 03:36 8 CA 8 M JSP BELLEDONNE DOMENE
9 486 BOUDRY Etienne 00:25:58 03:41 9 CA 9 M JSP MONTALIEU
10 372 LACROIX Thomas 00:26:28 04:11 10 CA 10 M JSP REGION ST JEANNAISE
11 647 ARNAUD-GODET Robin 00:26:47 04:30 11 CA 11 M JSP DENT DE CROLLES
12 834 LENFANT Loïc 00:27:00 04:43 12 CA 12 M JSP DES DEUX GUIERS
13 261 SAAD Alexandre 00:27:05 04:48 13 CA 13 M JSP ST MARCELLIN
14 77 BILLOTET Alexis 00:27:10 04:53 14 CA 14 M JSP VIENNE
15 724 BROCH Dorian 00:27:10 04:53 15 CA 15 M JSP TULLINS
16 83 PARIS Maxence 00:27:22 05:05 16 CA 16 M JSP VIENNE
17 352 PACALIN Rémi 00:27:23 05:06 17 CA 17 M JSP SATOLAS ET BONCE
18 82 PAPA Alexandre 00:27:26 05:09 18 CA 18 M JSP VIENNE
19 46 GANDY ALBAN 00:27:49 05:32 19 CA 19 M MORESTEL
20 680 DRUCKE Aloïs 00:28:00 05:43 20 CA 20 M JSP MOIRANS
21 650 DI FORTI Mattéo 00:28:23 06:06 21 CA 21 M JSP DENT DE CROLLES
22 78 ELENA Mathias 00:28:26 06:09 22 CA 22 M JSP VIENNE
23 258 HITSCH Mathieu 00:28:27 06:10 23 CA 23 M JSP ST MARCELLIN
24 421 MORELLON Valentin 00:28:28 06:11 24 CA 24 M JSP PEAGE DE ROUSSILLON
25 288 CUCHERAT Romain 00:28:32 06:15 25 CA 25 M JSP ST SAVIN
26 914 BERGER Kelian 00:28:41 06:24 26 CA 26 M JSP ST ETIENNE DE ST GEOIRS
27 840 BOUCHEZ Mathéo 00:28:44 06:27 27 CA 27 M JSP DES DEUX GUIERS
28 147 CLAVERIA Vincent 00:28:46 06:29 28 CA 28 M JSP CANTON DE VIF
29 289 GUTTIN-LOMBARD Yohan 00:28:55 06:38 29 CA 29 M JSP ST SAVIN
30 137 CARTIER Yann 00:28:56 06:39 30 CA 30 M JSP CANTON DE VIF
31 538 CROUZET Léo 00:28:58 06:41 31 CA 31 M JSP VAL DU VER
32 291 ANDRE ROMAGNY Tom 00:28:59 06:42 32 CA 32 M JSP ST SAVIN
33 84 PINNA Luigi 00:29:00 06:43 33 CA 33 M JSP VIENNE
34 283 GROUALLE Théo 00:29:07 06:50 34 CA 34 M JSP ST SAVIN
35 79 HUGNY Iannys 00:29:11 06:54 35 CA 35 M JSP VIENNE
36 49 CALVIERA ANTOINE 00:29:11 06:54 36 CA 36 M SEPTÈME
37 146 BONFARNUZZO Axel 00:29:11 06:54 37 CA 37 M JSP CANTON DE VIF
38 190 FOUQUET Quentin 00:29:14 06:57 38 CA 38 M JSP DAUPHINE EST
39 911 WAGNER CAMILLE 00:29:16 06:59 39 CA 39 M JSP TULLINS
40 355 DELANNAY Evan 00:29:16 06:59 40 CA 40 M JSP SATOLAS ET BONCE
41 399 PILLITERRI Luca 00:29:26 07:09 41 CA 41 M JSP BELLEDONNE DOMENE
42 409 PARRA Evan 00:29:32 07:15 42 CA 42 M JSP PEAGE DE ROUSSILLON
43 285 MAJRI Malek 00:29:33 07:16 43 CA 43 M JSP ST SAVIN
44 188 FAUGIER-DUPUIS Grégory 00:29:35 07:18 44 CA 44 M JSP DAUPHINE EST
45 256 CISSE Mathieu 00:29:36 07:19 45 CA 45 M JSP ST MARCELLIN
46 877 VILLARD LUCAS 00:29:39 07:22 46 CA 46 M TREPT
47 85 THELLIERE Nathan 00:29:58 07:41 47 CA 47 M JSP VIENNE
48 290 VILQUIN Lucas 00:30:04 07:47 48 CA 48 M JSP ST SAVIN
49 226 GIANFORCARO Adrien 00:30:05 07:48 49 CA 49 M JSP ST EGREVE
50 899 PERRIER Tom 00:30:07 07:50 50 CA 50 M JSP LES VAULNAVEYS
51 53 MARTIN Anthony 00:30:12 07:55 51 CA 51 M JSP BEAUREPAIRE
52 144 VENANCIO Fabien 00:30:12 07:55 52 CA 52 M JSP CANTON DE VIF
53 418 SENER Enis 00:30:15 07:58 53 CA 53 M JSP PEAGE DE ROUSSILLON
54 292 MARGERIE Raphael 00:30:16 07:59 54 CA 54 M JSP ST SAVIN
55 143 ROUSSELOT-PAILLEY Rémi 00:30:16 07:59 55 CA 55 M JSP CANTON DE VIF
56 50 GIAI VIA BAPTISTE 00:30:21 08:04 56 CA 56 M SEPTÈME
57 373 LAPORTE Antoine 00:30:22 08:05 57 CA 57 M JSP REGION ST JEANNAISE
58 663 DESCURES Maxime 00:30:23 08:06 58 CA 58 M JSP DENT DE CROLLES
59 47 SADANNE VALENTIN 00:30:26 08:09 59 CA 59 M MORESTEL
60 876 PELLET Quentin 00:30:27 08:10 60 CA 60 M JSP TREPT
61 871 CONESA Thibault 00:30:32 08:15 61 CA 61 M JSP TREPT
62 453 CIAVOLELLA Johan 00:30:35 08:18 62 CA 62 M JSP CHASSE SUR RHONE
63 145 BERTHOIN Vincent 00:30:37 08:20 63 CA 63 M JSP CANTON DE VIF
64 875 OLMO Tom 00:30:46 08:29 64 CA 64 M JSP TREPT
65 775 BORRALHEIRO Enzo 00:30:58 08:41 65 CA 65 M JSP ST ETIENNE DE ST GEOIRS
66 374 PELLET Valentin 00:31:01 08:44 66 CA 66 M JSP REGION ST JEANNAISE
67 874 MELKONIAN Jules 00:31:02 08:45 67 CA 67 M JSP TREPT
68 792 SUDRE Gabin 00:31:12 08:55 68 CA 68 M JSP ST SAVIN
69 80 LIBERSART Wallerand 00:31:14 08:57 69 CA 69 M JSP VIENNE
70 369 ABEL-COINDOZ Benoit 00:31:29 09:12 70 CA 70 M JSP REGION ST JEANNAISE
71 138 LACAILLE Loïc 00:31:30 09:13 71 CA 71 M JSP CANTON DE VIF
72 490 MONAVON Maxence 00:31:35 09:18 72 CA 72 M JSP MONTALIEU
73 140 GIRAUD Lorenzo 00:31:35 09:18 73 CA 73 M JSP CANTON DE VIF
74 721 ORTIZ GABRIEL 00:31:38 09:21 74 CA 74 M LA MURETTE
75 848 COSME Léo 00:31:47 09:30 75 CA 75 M JSP DES DEUX GUIERS
76 776 LAG-GOMEZ Mathys 00:31:48 09:31 76 CA 76 M JSP ST ETIENNE DE ST GEOIRS
77 779 HANNIFI Mickael 00:31:49 09:32 77 CA 77 M JSP ST ETIENNE DE ST GEOIRS
78 239 QUERTINIER Owen 00:31:54 09:37 78 CA 78 M JSP LA MURE
79 487 CALPETARD Mathieu 00:32:09 09:52 79 CA 79 M JSP MONTALIEU
80 592 BUHAGIAR Milo 00:32:10 09:53 80 CA 80 M JSP OYTIER SEPTEME
81 847 BORNEY Maxime 00:32:13 09:56 81 CA 81 M JSP DES DEUX GUIERS
82 502 FEUGIER Vincent 00:32:15 09:58 82 CA 82 M JSP VINAY
83 781 ORCEL Kévin 00:32:19 10:02 83 CA 83 M JSP ST ETIENNE DE ST GEOIRS
84 714 KIEL Louis 00:32:35 10:18 84 CA 84 M JSP PONT-DE-CHERUY
85 223 ESCOFFIER Jonathan 00:32:37 10:20 85 CA 85 M JSP ST EGREVE
86 225 MONNOT Luc 00:32:49 10:32 86 CA 86 M JSP ST EGREVE
87 191 BOSSU Liann 00:32:53 10:36 87 CA 87 M JSP DAUPHINE EST
88 76 ALONSO Joris 00:33:13 10:56 88 CA 88 M JSP VIENNE
89 116 MOIRON Rayane 00:33:13 10:56 89 CA 89 M JSP VIZILLE
90 389 GUICHARD Jarod 00:33:15 10:58 90 CA 90 M JSP BELLEDONNE DOMENE
91 780 MANET Alban 00:33:20 11:03 91 CA 91 M JSP ST ETIENNE DE ST GEOIRS
92 141 INGARGIOLA Théo 00:33:20 11:03 92 CA 92 M JSP CANTON DE VIF
93 237 BARRUEL Etienne 00:33:30 11:13 93 CA 93 M JSP LA MURE
94 404 ROSSET Rémi 00:33:34 11:17 94 CA 94 M JSP BELLEDONNE DOMENE
95 142 PILLET-ABBATTISTA Enzo 00:33:36 11:19 95 CA 95 M JSP CANTON DE VIF
96 547 DUFOUR Tanguy 00:33:48 11:31 96 CA 96 M JSP VAL DU VER
97 192 BENOIT CATTIN Antonin 00:33:49 11:32 97 CA 97 M JSP DAUPHINE EST
98 651 MIOSSEC Jimmy 00:33:58 11:41 98 CA 98 M JSP DENT DE CROLLES
99 612 CORAZZA Louis 00:34:07 11:50 99 CA 99 M JSP PORTE DE CHARTREUSE
100 726 CANOVAS Théo 00:34:12 11:55 100 CA 100 M JSP TULLINS
101 284 PAUL Ilyesse 00:34:13 11:56 101 CA 101 M JSP ST SAVIN
102 287 DEWULF Nicolas 00:34:13 11:56 102 CA 102 M JSP ST SAVIN
103 748 ZEFERINO Anthony 00:34:17 12:00 103 CA 103 M JSP TULLINS
104 503 FONTANA Bastien 00:35:02 12:45 104 CA 104 M JSP VINAY
105 489 JACQUET Baptiste 00:35:17 13:00 105 CA 105 M JSP MONTALIEU
106 872 LAVANANT Evan 00:35:26 13:09 106 CA 106 M JSP TREPT
107 600 LOCICERO Matys 00:35:30 13:13 107 CA 107 M JSP PORTE DE CHARTREUSE
108 774 MEBIAME AKONO Kilian Mehin 00:35:30 13:13 108 CA 108 M JSP ST ETIENNE DE ST GEOIRS
109 782 TABET Kévin 00:35:45 13:28 109 CA 109 M JSP ST ETIENNE DE ST GEOIRS
110 238 DURAND Corentin 00:35:47 13:30 110 CA 110 M JSP LA MURE
111 117 VILLARD Mathis 00:36:03 13:46 111 CA 111 M JSP VIZILLE
112 286 GONCALVES Lukas Stanislas 00:36:35 14:18 112 CA 112 M JSP ST SAVIN
113 222 BLANC-TRANCHANT Loïc 00:36:40 14:23 113 CA 113 M JSP ST EGREVE
114 845 LESPINASSE Florentin 00:36:49 14:32 114 CA 114 M JSP DES DEUX GUIERS
115 851 RULLO Hugo 00:36:51 14:34 115 CA 115 M JSP DES DEUX GUIERS
116 186 CHABOUD Corentin 00:37:16 14:59 116 CA 116 M JSP DAUPHINE EST
117 189 ERISAY Jullien 00:37:34 15:17 117 CA 117 M JSP DAUPHINE EST
118 646 ADELMANN Kris 00:37:39 15:22 118 CA 118 M JSP DENT DE CROLLES
119 843 GELIOT Kevin 00:38:10 15:53 119 CA 119 M JSP DES DEUX GUIERS
120 148 COUTURIER Bastien 00:38:35 16:18 120 CA 120 M JSP CANTON DE VIF
121 655 PINCHOT Maxim 00:38:41 16:24 121 CA 121 M JSP DENT DE CROLLES
122 870 CHAMARANDE Alexandre 00:38:46 16:29 122 CA 122 M JSP TREPT
123 335 SLACK Simon 00:38:49 16:32 123 CA 123 M JSP LES DEUX ALPES
124 332 ROGIER Dimitri 00:38:50 16:33 124 CA 124 M JSP LES DEUX ALPES
125 488 FAURE Sacha 00:38:50 16:33 125 CA 125 M JSP MONTALIEU
126 682 ZOUAOUI Kemyl 00:39:04 16:47 126 CA 126 M JSP MOIRANS
127 454 MARTIN Mattéo 00:39:13 16:56 127 CA 127 M JSP CHASSE SUR RHONE
128 777 BOUZON kévin 00:39:14 16:57 128 CA 128 M JSP ST ETIENNE DE ST GEOIRS
129 55 GOUBET Alexandre 00:43:38 21:21 129 CA 129 M JSP BEAUREPAIRE
130 836 PIOZ Joris 00:47:57 25:40 130 CA 130 M JSP DES DEUX GUIERS
  Cross de la Sainte-Barbe - CADETS M - Chrono Perf Event 2018
 
Nombre ou lettres (3 minimum)
Classement    
Filtre :
Rang :